Temperature
1 2 3 3 4 4 5 5 6 6 7 7 7 8 8 8 8 9 9 9 9 9 9 9 9 9 9 10 10 9 9 9 9 9 9 9 9 9 9 10 10 10 10
1 1 2 2 3 4 4 5 5 6 6 6 6 7 7 7 8 8 8 8 9 9 9 9 9 9 9 9 9 9 9 9 9 9 9 9 9 9 9 9 9 9 9
-0 0 1 1 2 3 3 4 4 5 5 6 6 6 6 7 7 7 8 8 8 8 8 8 8 8 9 9 9 9 9 9 9 9 9 9 9 9 9 9 9 9 9
-1 -0 -0 1 1 2 3 3 4 4 5 5 5 5 6 6 6 7 7 7 7 8 8 8 8 8 8 8 9 9 8 8 8 8 9 9 9 9 8 9 9 9 9
-2 -1 -1 -0 0 1 2 3 3 3 4 4 4 5 5 5 6 6 6 7 7 7 7 7 8 7 8 8 8 8 8 8 8 8 8 9 9 9 8 8 8 9 9
-2 -2 -1 -1 -0 0 1 2 2 3 3 3 4 4 4 5 5 5 6 6 6 7 7 7 7 7 7 7 8 8 8 8 8 8 8 8 8 8 8 8 8 8 8
-3 -2 -2 -1 -1 -0 0 1 1 2 2 2 3 3 4 4 4 5 5 5 5 6 6 6 7 7 7 7 7 7 7 7 7 7 7 8 8 8 8 8 8 8 8
-3 -3 -3 -2 -2 -1 -1 -0 1 1 1 2 2 2 3 3 3 4 4 4 5 5 5 6 6 6 6 6 6 6 7 7 7 7 7 7 7 8 8 8 8 8 7
-4 -3 -3 -3 -2 -2 -1 -1 -0 0 1 1 1 2 2 2 3 3 3 4 4 4 5 5 5 6 6 6 6 6 6 6 6 7 7 7 7 7 7 8 7 7 7
-4 -4 -4 -3 -3 -2 -2 -2 -1 -1 -0 0 1 1 1 2 2 3 3 3 3 4 4 4 5 5 5 5 5 5 6 6 6 6 6 6 7 7 7 7 7 7 7
-5 -4 -4 -4 -3 -3 -2 -2 -1 -1 -1 -0 0 0 1 1 1 2 2 3 3 3 3 4 4 4 4 5 5 5 5 5 6 6 6 6 6 6 6 7 7 7 7
-5 -5 -4 -4 -4 -3 -3 -2 -2 -2 -1 -1 -1 -0 0 0 1 1 2 2 2 2 3 3 3 3 4 4 4 4 5 5 5 5 5 6 6 6 6 6 6 6 6
-5 -5 -5 -5 -4 -4 -4 -3 -3 -2 -2 -2 -1 -1 -1 -0 0 0 1 1 1 2 2 2 3 3 3 3 4 4 4 4 4 5 5 5 5 5 6 6 6 6 6
-6 -5 -5 -5 -5 -4 -4 -4 -4 -3 -3 -2 -2 -2 -1 -1 -1 -0 -0 0 1 1 1 2 2 2 2 3 3 3 3 4 4 4 4 4 5 5 5 5 5 5 5
-6 -6 -6 -6 -5 -5 -5 -4 -4 -4 -3 -3 -3 -2 -2 -2 -1 -1 -1 -0 -0 0 1 1 1 1 2 2 2 3 3 3 3 3 3 4 4 4 5 5 5 5 5
-6 -6 -6 -6 -6 -6 -5 -5 -5 -4 -4 -4 -3 -3 -3 -2 -2 -2 -1 -1 -1 -0 -0 -0 0 1 1 1 1 2 2 2 2 3 3 3 3 4 4 4 4 4 4
-7 -7 -7 -7 -6 -6 -6 -6 -5 -5 -5 -4 -4 -4 -3 -3 -3 -2 -2 -2 -1 -1 -1 -1 -0 -0 0 1 1 1 1 1 2 2 2 3 3 3 3 3 4 4 4
-7 -7 -7 -7 -7 -6 -6 -6 -6 -6 -5 -5 -4 -4 -4 -4 -4 -3 -3 -2 -2 -2 -2 -1 -1 -1 -0 -0 0 0 0 1 1 1 2 2 2 3 3 3 3 3 3
-8 -8 -7 -7 -7 -7 -7 -6 -6 -6 -6 -5 -5 -5 -5 -4 -4 -4 -4 -3 -3 -3 -2 -2 -2 -1 -1 -1 -1 -0 -0 -0 0 1 1 1 1 2 2 2 2 3 3
-8 -8 -8 -7 -7 -7 -7 -7 -7 -6 -6 -6 -6 -6 -5 -5 -5 -5 -4 -4 -4 -3 -3 -3 -2 -2 -2 -2 -1 -1 -1 -1 -1 -0 0 0 1 1 1 1 2 2 2
-8 -8 -8 -8 -7 -7 -7 -7 -7 -7 -7 -7 -6 -6 -6 -6 -6 -5 -5 -5 -4 -4 -4 -4 -3 -3 -3 -2 -2 -2 -2 -1 -1 -1 -1 -0 0 0 0 1 1 1 1
-8 -8 -8 -8 -8 -8 -8 -8 -7 -7 -7 -7 -7 -7 -6 -6 -6 -6 -6 -5 -5 -5 -5 -4 -4 -4 -3 -3 -3 -2 -2 -2 -2 -1 -1 -1 -1 -0 -0 0 0 0 0
-9 -9 -9 -9 -8 -8 -8 -8 -8 -8 -8 -8 -7 -7 -7 -7 -7 -6 -6 -6 -6 -6 -5 -5 -5 -4 -4 -4 -3 -3 -3 -3 -2 -2 -2 -1 -1 -1 -1 -0 -0 -0 -0
-9 -9 -9 -9 -9 -9 -8 -8 -8 -8 -8 -8 -8 -8 -7 -7 -7 -7 -7 -7 -7 -6 -6 -6 -6 -5 -5 -5 -4 -4 -4 -3 -3 -3 -2 -2 -2 -2 -1 -1 -1 -1 -1
-10 -10 -10 -10 -9 -9 -9 -9 -9 -8 -8 -8 -8 -8 -8 -8 -7 -7 -7 -7 -7 -7 -7 -7 -6 -6 -5 -5 -5 -5 -4 -4 -4 -4 -3 -3 -3 -2 -2 -2 -2 -2 -2
-10 -10 -10 -10 -10 -9 -9 -9 -9 -9 -9 -9 -8 -8 -8 -8 -8 -8 -8 -8 -8 -7 -7 -7 -7 -7 -6 -6 -5 -5 -5 -5 -5 -4 -4 -4 -3 -3 -3 -3 -3 -3 -2
Wind_Speed
8 9 10 9 8 8 7 5 4 4 3 2 1 1 1 2 2 1 2 4 5 6 7 6 6 7 6 6 7 6 5 4 4 3 3 2 2 3 3 4 3 4 4
9 10 10 10 10 9 8 8 6 4 3 3 3 2 3 3 2 2 1 2 4 5 6 7 7 7 6 7 7 7 5 4 5 4 4 3 3 3 3 3 3 4 4
8 9 10 10 10 10 10 7 7 6 4 4 3 1 1 1 2 2 2 2 3 5 6 7 7 7 7 7 8 8 8 6 5 5 4 4 4 3 4 4 4 4 4
8 8 9 10 10 10 9 9 7 6 5 4 3 2 2 3 3 3 3 3 3 3 4 6 7 7 6 7 8 8 7 8 6 5 4 4 2 3 3 4 5 5 5
8 8 9 9 9 9 9 9 8 6 6 4 3 2 2 3 3 2 3 3 2 3 4 4 5 7 7 7 7 7 8 8 8 6 4 4 3 4 3 4 5 5 5
8 9 9 9 9 9 9 9 8 7 6 5 4 3 3 3 2 2 3 3 2 2 3 4 5 6 7 8 8 8 9 8 8 7 6 6 5 5 5 4 5 5 4
8 9 10 10 10 10 10 9 9 8 7 5 4 3 3 3 3 3 3 3 2 2 4 4 4 5 6 7 8 8 8 9 10 9 7 7 7 5 5 4 4 4 3
8 9 9 9 10 10 10 10 9 8 7 6 5 4 3 2 2 3 3 4 3 4 4 4 4 5 6 6 7 7 8 8 9 9 9 7 6 6 6 5 4 4 4
9 9 9 9 10 10 10 10 9 8 8 6 5 5 4 3 3 3 3 3 3 4 4 4 4 4 5 6 6 6 7 8 8 9 9 7 6 6 6 6 6 5 5
9 10 9 9 9 9 9 9 9 8 8 7 6 4 4 4 3 3 3 4 4 4 4 4 4 4 4 5 6 7 7 8 8 7 9 8 6 6 6 6 6 6 6
9 9 9 9 9 9 9 9 9 9 8 7 6 6 5 4 4 3 4 4 4 4 4 4 4 4 5 5 5 6 7 8 8 7 8 8 8 6 6 6 6 6 6
9 9 9 9 9 9 9 9 9 9 8 7 6 6 5 5 4 4 4 4 4 5 5 5 4 5 5 5 6 7 7 7 8 8 8 8 7 7 6 6 6 6 6
9 9 9 9 9 9 9 9 9 8 8 7 6 6 5 5 5 5 5 5 5 5 5 5 5 5 5 5 6 7 7 8 8 8 8 8 8 8 7 7 6 6 5
9 9 9 9 9 10 9 9 9 8 8 7 6 6 6 6 5 5 5 5 5 5 5 5 5 5 5 5 5 6 7 7 8 7 8 8 9 9 8 7 7 6 6
10 10 10 10 10 10 10 9 9 9 8 7 6 6 6 6 6 6 5 5 5 6 5 5 5 5 5 5 5 6 6 7 7 7 8 8 8 8 7 6 6 6 6
11 11 11 10 10 10 10 9 9 9 8 8 7 7 7 6 6 6 6 5 5 5 5 5 6 6 5 5 6 6 6 6 6 7 6 6 7 7 7 7 7 8 8
12 12 11 10 10 10 10 9 9 9 8 7 7 7 6 6 6 6 6 6 6 5 5 5 6 6 6 6 6 7 6 7 7 7 6 5 6 7 7 7 7 7 8
12 12 11 10 10 10 9 9 8 8 8 8 7 7 7 7 7 7 6 6 6 5 5 5 6 6 6 6 6 7 6 6 7 7 7 6 5 5 6 6 7 7 7
11 10 10 10 10 10 9 8 8 8 7 8 8 8 7 8 7 7 7 6 6 6 5 5 6 6 6 6 6 6 5 5 6 6 6 6 6 6 6 7 7 7 5
10 10 9 9 9 9 8 7 8 7 8 8 8 8 7 8 8 8 7 7 6 6 6 5 5 5 5 5 6 6 4 5 5 5 6 7 7 7 7 7 7 7 6
11 10 9 9 9 8 7 7 8 8 9 8 8 8 7 7 8 7 7 6 6 6 6 6 5 5 5 6 6 7 5 5 5 5 5 5 7 7 8 8 7 8 6
10 10 9 9 8 8 7 8 9 9 9 8 8 8 7 7 6 7 6 6 6 5 5 5 5 5 5 6 6 7 7 7 6 6 5 5 7 8 8 8 7 7 6
10 9 9 9 9 8 7 9 10 9 9 8 8 7 7 6 6 6 6 5 5 4 4 4 4 5 4 4 7 8 8 8 6 5 7 7 8 7 7 8 8 7 5
9 9 9 9 9 9 8 9 9 9 8 8 8 7 7 6 6 5 5 4 4 4 5 5 5 5 5 4 4 4 4 6 6 5 6 8 8 7 7 6 6 5 5
8 8 8 9 10 10 9 9 9 8 8 8 7 7 6 6 6 5 5 5 5 5 6 5 5 5 6 6 7 6 5 5 5 5 4 4 4 5 4 4 4 4 4
8 8 8 9 9 9 9 9 8 7 7 7 7 6 5 5 5 5 6 6 7 8 8 8 8 7 8 9 9 9 9 8 8 6 5 5 6 6 5 5 4 4 4
Wind_Direction
11 10 10 7 4 2 356 341 336 335 332 321 274 239 244 246 248 240 243 211 201 199 192 187 186 187 188 188 185 178 176 176 171 169 175 185 196 204 202 205 206 198 194
6 7 8 8 5 2 357 351 341 330 323 316 285 251 246 241 256 279 262 240 210 204 201 196 194 193 193 191 189 182 184 184 191 191 188 197 198 206 209 201 206 210 205
2 360 1 3 2 1 355 346 344 336 323 317 302 287 254 252 255 261 259 265 239 216 213 206 203 199 196 196 196 192 192 193 201 208 207 204 211 190 198 207 209 211 218
359 358 356 356 357 354 351 346 342 344 332 320 299 258 236 240 252 253 257 254 239 224 223 218 209 205 203 203 203 203 201 198 201 206 226 238 210 202 194 204 212 214 223
354 353 352 350 351 351 351 349 345 347 339 326 300 265 261 261 253 247 252 253 240 229 229 230 221 215 211 210 208 208 208 208 210 208 206 211 212 218 216 213 207 213 218
352 352 351 353 353 352 352 352 349 346 338 333 322 293 277 268 262 251 243 249 250 246 255 249 233 226 221 214 212 210 212 213 216 217 214 215 213 210 214 223 213 216 214
351 350 352 353 350 349 350 348 348 344 337 334 326 311 300 280 259 252 247 251 257 254 255 257 249 235 231 223 215 213 213 214 216 219 221 226 231 220 219 220 220 226 224
349 346 347 347 346 344 344 344 344 342 335 334 334 322 309 292 279 270 260 250 255 256 264 260 249 247 235 226 219 217 218 218 220 222 224 228 231 224 220 217 217 224 231
344 342 343 343 342 341 340 337 337 337 335 335 333 322 318 312 296 290 280 261 262 266 260 260 250 250 245 230 221 222 223 221 223 224 224 227 230 231 226 223 219 223 232
341 340 339 338 336 336 335 336 338 333 330 334 334 324 320 310 297 294 291 287 274 271 264 257 249 243 247 237 226 227 226 224 223 224 223 225 226 229 227 224 224 229 235
336 335 334 333 333 336 336 337 339 335 333 334 331 327 321 313 300 288 288 289 285 269 262 258 246 239 240 236 228 228 224 224 224 221 223 226 224 225 224 223 222 225 225
333 334 333 334 336 336 335 336 335 332 331 330 324 323 323 316 306 301 299 291 285 280 268 258 247 244 242 237 229 230 226 224 226 224 223 227 223 225 222 217 219 222 223
332 335 335 336 334 332 332 332 330 327 326 324 321 321 320 319 313 306 306 302 288 280 275 263 252 248 247 244 236 232 230 227 226 226 225 228 223 224 222 216 217 220 222
328 332 334 332 330 328 327 329 328 326 324 320 318 318 316 313 308 306 300 294 290 285 278 268 259 252 248 248 244 238 238 236 232 231 229 227 222 223 223 216 215 215 216
327 328 327 326 326 325 327 327 326 326 323 318 316 314 311 310 309 304 298 290 285 282 278 274 262 253 246 245 245 238 239 238 236 234 234 231 226 224 225 219 214 212 213
320 320 320 321 321 321 321 321 322 323 323 320 316 314 311 308 306 304 300 296 288 281 275 274 266 255 251 257 261 256 245 239 236 236 236 232 223 219 224 224 217 214 213
314 313 312 312 313 313 313 313 315 317 317 317 316 316 313 312 310 308 307 301 294 288 282 274 267 259 258 257 259 260 250 240 237 235 233 234 229 217 220 220 216 222 227
311 310 309 309 310 310 311 310 312 314 314 315 315 314 312 308 307 306 306 303 296 291 286 282 274 264 257 256 260 265 250 244 241 238 234 228 230 225 222 219 218 223 227
307 305 305 305 306 308 311 312 312 313 312 312 312 311 309 306 304 304 303 299 296 291 287 285 282 271 265 257 254 261 248 242 243 241 237 236 236 231 224 217 217 222 230
313 311 309 309 309 311 312 309 310 311 309 308 307 306 304 301 298 297 296 294 291 288 288 284 282 278 271 267 261 260 245 241 243 246 242 237 240 236 228 223 216 219 225
317 317 314 312 312 314 312 309 310 308 306 305 305 305 304 301 296 296 295 294 292 288 285 284 285 283 281 277 269 263 250 245 243 241 241 241 242 239 235 233 228 223 219
318 319 316 314 316 318 314 309 306 306 307 305 305 306 306 304 300 299 299 296 290 283 281 283 287 284 279 278 270 265 259 257 248 245 245 245 241 240 238 235 229 217 210
316 317 315 314 318 319 314 306 306 310 308 307 307 306 307 305 301 298 298 296 288 281 280 280 281 285 286 284 281 274 266 262 254 252 251 253 247 243 240 233 225 215 216
314 315 315 315 317 319 315 308 307 310 310 309 308 308 308 309 308 301 295 293 288 281 279 278 279 281 283 282 285 280 275 266 259 258 254 250 246 238 235 230 222 222 216
311 313 312 311 312 317 315 315 314 313 311 311 310 310 310 310 309 305 299 292 286 280 278 276 275 275 277 280 284 282 273 270 260 258 256 248 240 230 226 222 217 211 204
310 311 311 311 311 314 314 316 316 313 312 313 314 311 309 308 307 307 308 302 294 297 287 285 284 281 281 288 285 281 278 278 267 262 248 243 237 230 222 217 214 213 212
Height
1522 1520 1518 1517 1516 1516 1515 1516 1516 1517 1517 1518 1519 1520 1521 1523 1524 1525 1528 1529 1531 1534 1536 1538 1540 1542 1543 1545 1547 1549 1550 1552 1554 1555 1557 1558 1558 1559 1560 1561 1562 1562 1563
1522 1519 1518 1516 1515 1514 1514 1513 1514 1514 1515 1515 1516 1517 1518 1519 1521 1522 1523 1526 1527 1530 1532 1535 1537 1538 1540 1542 1544 1546 1547 1549 1551 1553 1555 1556 1558 1557 1557 1558 1559 1560 1561
1522 1520 1517 1515 1514 1512 1512 1511 1511 1512 1512 1513 1514 1515 1516 1517 1518 1519 1520 1521 1524 1526 1528 1531 1533 1535 1537 1538 1540 1542 1544 1546 1548 1550 1552 1554 1554 1554 1555 1555 1556 1557 1558
1522 1520 1518 1515 1513 1511 1510 1510 1509 1509 1509 1510 1510 1511 1511 1512 1513 1514 1516 1518 1520 1521 1524 1526 1529 1531 1533 1535 1537 1539 1541 1543 1544 1546 1548 1550 1550 1552 1552 1553 1553 1554 1555
1522 1520 1518 1515 1512 1511 1509 1508 1507 1506 1507 1507 1507 1507 1508 1509 1510 1511 1513 1514 1515 1518 1520 1522 1524 1527 1529 1531 1533 1535 1537 1539 1540 1542 1543 1545 1546 1548 1549 1549 1550 1551 1552
1521 1519 1517 1514 1512 1510 1508 1506 1505 1505 1504 1504 1504 1504 1505 1506 1506 1507 1509 1510 1511 1513 1515 1517 1519 1522 1524 1526 1528 1530 1532 1534 1536 1538 1539 1541 1543 1544 1545 1546 1546 1547 1548
1520 1518 1515 1512 1510 1508 1506 1505 1504 1502 1502 1501 1501 1500 1501 1502 1503 1503 1505 1506 1507 1509 1511 1513 1515 1517 1519 1521 1523 1525 1527 1529 1531 1533 1535 1537 1539 1540 1542 1543 1543 1544 1544
1520 1518 1515 1512 1510 1507 1505 1503 1502 1501 1500 1499 1498 1498 1498 1498 1499 1500 1502 1502 1503 1505 1506 1508 1510 1512 1514 1516 1518 1520 1522 1524 1526 1528 1530 1532 1534 1536 1537 1539 1540 1540 1540
1520 1517 1514 1511 1509 1506 1504 1502 1501 1499 1497 1496 1496 1495 1495 1495 1496 1497 1498 1499 1500 1501 1502 1503 1505 1507 1509 1511 1512 1515 1517 1519 1521 1523 1525 1527 1528 1530 1532 1534 1535 1537 1536
1519 1516 1513 1510 1507 1505 1503 1501 1499 1497 1495 1494 1493 1493 1492 1492 1493 1493 1494 1495 1495 1497 1498 1499 1500 1502 1504 1506 1507 1509 1511 1513 1515 1518 1520 1521 1523 1525 1527 1528 1530 1531 1533
1518 1515 1512 1508 1506 1503 1501 1498 1496 1495 1493 1491 1490 1490 1489 1489 1489 1490 1490 1490 1491 1492 1493 1494 1496 1497 1499 1500 1501 1504 1506 1507 1509 1511 1514 1516 1518 1519 1521 1523 1524 1526 1528
1517 1514 1511 1507 1504 1501 1499 1496 1494 1492 1491 1489 1488 1487 1487 1486 1486 1486 1486 1487 1487 1488 1488 1490 1491 1493 1494 1494 1496 1498 1500 1501 1503 1505 1508 1510 1512 1513 1515 1517 1519 1520 1522
1515 1513 1510 1506 1503 1500 1497 1495 1492 1490 1488 1487 1485 1484 1484 1483 1482 1483 1482 1482 1483 1483 1484 1485 1486 1487 1488 1489 1491 1492 1494 1496 1497 1499 1501 1503 1505 1507 1509 1511 1513 1515 1516
1514 1511 1508 1505 1501 1498 1495 1492 1490 1488 1486 1484 1483 1481 1480 1479 1479 1479 1479 1479 1478 1479 1479 1480 1481 1482 1483 1484 1485 1487 1488 1490 1492 1494 1495 1497 1499 1501 1503 1505 1507 1509 1510
1512 1509 1506 1503 1499 1496 1493 1490 1488 1485 1483 1482 1480 1478 1477 1476 1476 1475 1475 1475 1475 1475 1475 1475 1476 1477 1478 1479 1480 1481 1483 1484 1486 1488 1489 1491 1493 1495 1497 1499 1501 1503 1505
1511 1507 1504 1501 1497 1494 1491 1488 1485 1483 1481 1479 1477 1476 1474 1473 1472 1472 1471 1470 1470 1471 1471 1471 1471 1472 1472 1474 1475 1477 1478 1479 1480 1482 1483 1485 1487 1489 1491 1493 1495 1497 1499
1509 1506 1502 1499 1495 1492 1489 1486 1483 1480 1478 1476 1474 1473 1471 1470 1469 1468 1467 1466 1466 1466 1466 1466 1466 1466 1467 1469 1470 1471 1472 1473 1474 1476 1478 1479 1481 1482 1484 1486 1488 1490 1492
1507 1503 1500 1496 1493 1489 1486 1483 1480 1478 1475 1473 1471 1470 1468 1466 1465 1464 1462 1462 1461 1460 1461 1461 1461 1461 1462 1463 1464 1465 1467 1467 1469 1470 1472 1473 1474 1476 1478 1480 1482 1484 1486
1504 1501 1497 1494 1490 1487 1483 1480 1477 1475 1472 1470 1468 1466 1465 1463 1461 1460 1458 1458 1457 1456 1456 1455 1455 1456 1457 1458 1459 1460 1461 1461 1463 1464 1466 1467 1468 1470 1472 1474 1476 1478 1479
1501 1497 1494 1490 1487 1484 1481 1478 1475 1472 1470 1468 1466 1464 1462 1460 1458 1456 1455 1454 1453 1452 1451 1451 1451 1451 1451 1453 1454 1455 1456 1456 1457 1459 1460 1462 1463 1465 1466 1468 1470 1471 1473
1498 1495 1491 1487 1484 1481 1478 1475 1472 1469 1467 1465 1463 1460 1458 1456 1454 1453 1451 1450 1449 1448 1447 1447 1446 1446 1447 1448 1448 1450 1451 1451 1452 1453 1454 1456 1458 1459 1461 1463 1464 1465 1467
1495 1492 1488 1485 1482 1479 1476 1472 1469 1467 1465 1462 1459 1457 1455 1453 1451 1449 1448 1446 1445 1444 1443 1443 1442 1442 1442 1443 1444 1444 1445 1446 1447 1447 1449 1450 1452 1454 1456 1457 1458 1460 1462
1492 1489 1486 1482 1479 1476 1473 1470 1467 1464 1462 1459 1456 1454 1451 1450 1448 1446 1444 1443 1442 1441 1440 1439 1439 1438 1438 1438 1439 1439 1440 1441 1441 1442 1443 1445 1446 1448 1450 1452 1453 1455 1456
1490 1486 1483 1479 1476 1473 1470 1467 1464 1462 1459 1456 1453 1451 1449 1447 1445 1443 1441 1440 1439 1437 1436 1436 1435 1434 1434 1434 1434 1434 1435 1435 1436 1436 1438 1440 1441 1442 1444 1445 1447 1448 1450
1487 1484 1481 1477 1474 1471 1468 1465 1462 1459 1456 1453 1451 1448 1446 1444 1442 1440 1438 1437 1435 1434 1433 1432 1431 1431 1429 1429 1430 1430 1430 1431 1431 1432 1433 1434 1435 1436 1437 1439 1441 1442 1444
1484 1481 1478 1475 1471 1468 1465 1462 1459 1456 1453 1450 1448 1445 1443 1441 1439 1437 1435 1433 1432 1430 1429 1428 1427 1426 1426 1426 1426 1426 1426 1426 1428 1428 1428 1428 1429 1431 1432 1433 1434 1436 1438